| time (UTC) | temp F | wind direction | speed knots | gust knots | rain 1hr in | rain 24hr in | rain mn in | humidity % | barometer mb |
| 20260504081918 | 53 | 225 | 13.9 | 22.6 | 0.00 | 0.00 | 0.00 | 48 | 987.7 |
| 20260504081418 | 53 | 203 | 12.2 | 16.5 | 0.00 | 0.00 | 0.00 | 48 | 987.7 |
| 20260504080920 | 53 | 225 | 14.8 | 20.0 | 0.00 | 0.00 | 0.00 | 48 | 987.9 |
| 20260504080420 | 53 | 203 | 13.9 | 20.9 | 0.00 | 0.00 | 0.00 | 48 | 987.9 |
| 20260504050418 | 53 | 225 | 8.7 | 13.9 | 0.00 | 0.00 | 0.00 | 48 | 990.3 |
| 20260504045918 | 53 | 203 | 11.3 | 18.2 | 0.00 | 0.00 | 0.00 | 48 | 990.4 |
| 20260504045418 | 53 | 225 | 10.4 | 19.1 | 0.00 | 0.00 | 0.00 | 48 | 990.4 |
| 20260504044939 | 53 | 225 | 13.0 | 19.1 | 0.00 | 0.00 | 0.00 | 49 | 990.4 |
| 20260504044438 | 53 | 203 | 10.4 | 15.6 | 0.00 | 0.00 | 0.00 | 49 | 990.5 |
| 20260504043918 | 52 | 203 | 12.2 | 16.5 | 0.00 | 0.00 | 0.00 | 49 | 990.6 |
| 20260504043418 | 52 | 203 | 9.6 | 17.4 | 0.00 | 0.00 | 0.00 | 49 | 990.5 |
| 20260504042958 | 52 | 203 | 10.4 | 17.4 | 0.00 | 0.00 | 0.00 | 49 | 990.5 |
| 20260504042438 | 52 | 203 | 9.6 | 14.8 | 0.00 | 0.00 | 0.00 | 49 | 990.6 |
| 20260504041918 | 52 | 203 | 9.6 | 13.9 | 0.00 | 0.00 | 0.00 | 49 | 990.7 |
| 20260504041418 | 52 | 225 | 8.7 | 13.0 | 0.00 | 0.00 | 0.00 | 50 | 990.7 |
| 20260504040921 | 52 | 203 | 7.0 | 9.6 | 0.00 | 0.00 | 0.00 | 50 | 990.7 |
| 20260504040458 | 52 | 203 | 7.0 | 12.2 | 0.00 | 0.00 | 0.00 | 50 | 990.8 |
| 20260504035939 | 52 | 203 | 6.1 | 13.0 | 0.00 | 0.00 | 0.00 | 50 | 990.9 |
| 20260504035420 | 52 | 203 | 8.7 | 12.2 | 0.00 | 0.00 | 0.00 | 51 | 991.0 |
| 20260504034920 | 52 | 203 | 7.0 | 9.6 | 0.00 | 0.00 | 0.00 | 51 | 991.0 |
| 20260504034420 | 52 | 180 | 4.3 | 7.8 | 0.00 | 0.00 | 0.00 | 51 | 991.1 |
| 20260504033920 | 52 | 203 | 7.8 | 12.2 | 0.00 | 0.00 | 0.00 | 51 | 991.1 |
| 20260504033420 | 52 | 225 | 7.0 | 13.9 | 0.00 | 0.00 | 0.00 | 52 | 991.2 |
| 20260504032920 | 52 | 180 | 5.2 | 8.7 | 0.00 | 0.00 | 0.00 | 51 | 991.3 |
| 20260504032438 | 52 | 180 | 7.0 | 12.2 | 0.00 | 0.00 | 0.00 | 52 | 991.3 |
| 20260504031940 | 52 | 203 | 5.2 | 10.4 | 0.00 | 0.00 | 0.00 | 51 | 991.3 |
| 20260504031438 | 52 | 203 | 5.2 | 7.0 | 0.00 | 0.00 | 0.00 | 51 | 991.4 |
| 20260504030921 | 52 | 203 | 5.2 | 7.8 | 0.00 | 0.00 | 0.00 | 51 | 991.5 |
| 20260504030418 | 52 | 203 | 4.3 | 7.0 | 0.00 | 0.00 | 0.00 | 51 | 991.6 |
| 20260504025918 | 52 | 203 | 6.1 | 7.8 | 0.00 | 0.00 | 0.00 | 51 | 991.7 |
| 20260504025418 | 52 | 180 | 6.1 | 11.3 | 0.00 | 0.00 | 0.00 | 51 | 991.7 |
| 20260504024918 | 52 | 203 | 5.2 | 9.6 | 0.00 | 0.00 | 0.00 | 50 | 991.8 |
| 20260504024418 | 53 | 225 | 6.1 | 11.3 | 0.00 | 0.00 | 0.00 | 50 | 991.8 |
| 20260504023918 | 53 | 203 | 5.2 | 8.7 | 0.00 | 0.00 | 0.00 | 50 | 991.9 |
| 20260504023418 | 53 | 203 | 6.1 | 14.8 | 0.00 | 0.00 | 0.00 | 50 | 991.8 |
| 20260504022958 | 53 | 203 | 6.1 | 9.6 | 0.00 | 0.00 | 0.00 | 50 | 991.9 |
| 20260504022418 | 53 | 203 | 6.1 | 8.7 | 0.00 | 0.00 | 0.00 | 50 | 992.0 |
| 20260504021918 | 53 | 203 | 6.1 | 9.6 | 0.00 | 0.00 | 0.00 | 50 | 991.9 |
| 20260504021418 | 53 | 203 | 5.2 | 9.6 | 0.00 | 0.00 | 0.00 | 50 | 991.9 |
| 20260504020938 | 53 | 203 | 8.7 | 13.0 | 0.00 | 0.00 | 0.00 | 50 | 992.0 |
| 20260504020418 | 53 | 203 | 7.8 | 11.3 | 0.00 | 0.00 | 0.00 | 49 | 991.9 |
| 20260504015917 | 53 | 225 | 6.1 | 13.9 | 0.00 | 0.00 | 0.00 | 49 | 992.0 |
| 20260504015419 | 53 | 225 | 9.6 | 12.2 | 0.00 | 0.00 | 0.00 | 48 | 992.0 |
| 20260504014918 | 53 | 203 | 6.1 | 8.7 | 0.00 | 0.00 | 0.00 | 48 | 992.0 |
| 20260504014419 | 54 | 225 | 7.0 | 12.2 | 0.00 | 0.00 | 0.00 | 47 | 991.9 |
| 20260504013918 | 53 | 203 | 7.8 | 12.2 | 0.00 | 0.00 | 0.00 | 47 | 991.9 |
| 20260504013418 | 54 | 225 | 10.4 | 13.9 | 0.00 | 0.00 | 0.00 | 48 | 991.9 |
| 20260504012918 | 54 | 203 | 8.7 | 12.2 | 0.00 | 0.00 | 0.00 | 48 | 991.8 |
| 20260504012418 | 54 | 225 | 11.3 | 13.0 | 0.00 | 0.00 | 0.00 | 47 | 991.9 |
| 20260504011919 | 54 | 225 | 9.6 | 14.8 | 0.00 | 0.00 | 0.00 | 47 | 992.0 |
| 20260504011418 | 54 | 225 | 13.0 | 15.6 | 0.00 | 0.00 | 0.00 | 48 | 992.0 |
| 20260504010918 | 54 | 225 | 12.2 | 13.9 | 0.00 | 0.00 | 0.00 | 47 | 992.0 |
| 20260504010418 | 54 | 225 | 10.4 | 12.2 | 0.00 | 0.00 | 0.00 | 47 | 992.1 |
| 20260504005919 | 54 | 248 | 11.3 | 14.8 | 0.00 | 0.00 | 0.00 | 47 | 992.2 |
| 20260504005417 | 54 | 225 | 13.0 | 16.5 | 0.00 | 0.00 | 0.00 | 47 | 992.0 |
| 20260504004918 | 54 | 248 | 9.6 | 12.2 | 0.00 | 0.00 | 0.00 | 47 | 992.0 |
| 20260504004417 | 55 | 225 | 10.4 | 13.9 | 0.00 | 0.00 | 0.00 | 45 | 992.0 |
| 20260504003918 | 55 | 248 | 12.2 | 13.9 | 0.00 | 0.00 | 0.00 | 47 | 992.1 |
| 20260504003418 | 55 | 225 | 7.8 | 10.4 | 0.00 | 0.00 | 0.00 | 48 | 992.1 |
| 20260504002918 | 55 | 248 | 7.0 | 9.6 | 0.00 | 0.00 | 0.00 | 47 | 992.0 |
| 20260504002437 | 55 | 248 | 11.3 | 13.0 | 0.00 | 0.00 | 0.00 | 47 | 992.0 |
| 20260504001938 | 56 | 225 | 9.6 | 12.2 | 0.00 | 0.00 | 0.00 | 47 | 992.0 |
| 20260504001418 | 56 | 248 | 11.3 | 14.8 | 0.00 | 0.00 | 0.00 | 46 | 991.8 |
| 20260504000919 | 57 | 248 | 8.7 | 13.0 | 0.00 | 0.00 | 0.00 | 46 | 991.8 |
| 20260504000439 | 57 | 248 | 10.4 | 14.8 | 0.00 | 0.00 | 0.00 | 44 | 991.8 |
| 20260503235917 | 58 | 225 | 12.2 | 16.5 | 0.00 | 0.00 | 0.00 | 43 | 991.7 |
| 20260503235439 | 59 | 225 | 13.9 | 17.4 | 0.00 | 0.00 | 0.00 | 35 | 991.5 |
| 20260503234918 | 59 | 225 | 11.3 | 13.9 | 0.00 | 0.00 | 0.00 | 33 | 991.4 |
| 20260503234458 | 59 | 225 | 10.4 | 12.2 | 0.00 | 0.00 | 0.00 | 31 | 991.5 |
| 20260503233917 | 60 | 225 | 10.4 | 13.9 | 0.00 | 0.00 | 0.00 | 31 | 991.4 |
| 20260503233418 | 60 | 225 | 10.4 | 14.8 | 0.00 | 0.00 | 0.00 | 31 | 991.3 |
| 20260503232918 | 60 | 225 | 11.3 | 13.9 | 0.00 | 0.00 | 0.00 | 31 | 991.3 |
| 20260503232418 | 60 | 225 | 13.0 | 14.8 | 0.00 | 0.00 | 0.00 | 32 | 991.4 |
| 20260503231918 | 60 | 225 | 13.0 | 15.6 | 0.00 | 0.00 | 0.00 | 33 | 991.4 |
| 20260503231418 | 60 | 225 | 14.8 | 19.1 | 0.00 | 0.00 | 0.00 | 31 | 991.5 |
| 20260503230918 | 60 | 225 | 13.9 | 16.5 | 0.00 | 0.00 | 0.00 | 32 | 991.5 |
| 20260503230459 | 60 | 225 | 9.6 | 13.0 | 0.00 | 0.00 | 0.00 | 31 | 991.5 |
| 20260503225917 | 61 | 225 | 13.0 | 15.6 | 0.00 | 0.00 | 0.00 | 30 | 991.4 |
| 20260503225418 | 61 | 225 | 13.0 | 15.6 | 0.00 | 0.00 | 0.00 | 29 | 991.5 |
| 20260503224938 | 61 | 248 | 13.9 | 15.6 | 0.00 | 0.00 | 0.00 | 30 | 991.5 |
| 20260503224418 | 61 | 225 | 13.0 | 16.5 | 0.00 | 0.00 | 0.00 | 32 | 991.6 |
| 20260503223918 | 61 | 225 | 13.0 | 17.4 | 0.00 | 0.00 | 0.00 | 29 | 991.6 |
| 20260503223418 | 61 | 225 | 13.0 | 19.1 | 0.00 | 0.00 | 0.00 | 32 | 991.6 |
| 20260503222917 | 61 | 225 | 13.9 | 19.1 | 0.00 | 0.00 | 0.00 | 31 | 991.6 |
| 20260503222418 | 61 | 225 | 13.9 | 17.4 | 0.00 | 0.00 | 0.00 | 31 | 991.7 |
| 20260503221918 | 61 | 225 | 15.6 | 20.0 | 0.00 | 0.00 | 0.00 | 31 | 991.6 |
| 20260503221417 | 61 | 225 | 15.6 | 18.2 | 0.00 | 0.00 | 0.00 | 29 | 991.6 |
| 20260503220918 | 61 | 225 | 13.9 | 17.4 | 0.00 | 0.00 | 0.00 | 31 | 991.6 |
| 20260503220417 | 61 | 225 | 15.6 | 17.4 | 0.00 | 0.00 | 0.00 | 32 | 991.6 |
| 20260503215918 | 61 | 225 | 20.9 | 24.3 | 0.00 | 0.00 | 0.00 | 31 | 991.6 |
| 20260503215418 | 61 | 225 | 15.6 | 20.0 | 0.00 | 0.00 | 0.00 | 30 | 991.7 |
| 20260503214918 | 61 | 248 | 9.6 | 13.9 | 0.00 | 0.00 | 0.00 | 31 | 991.8 |
| 20260503214417 | 61 | 225 | 19.1 | 21.7 | 0.00 | 0.00 | 0.00 | 31 | 991.6 |
| 20260503213917 | 61 | 225 | 17.4 | 23.5 | 0.00 | 0.00 | 0.00 | 29 | 991.5 |
| 20260503213418 | 61 | 225 | 20.0 | 26.1 | 0.00 | 0.00 | 0.00 | 31 | 991.7 |
| 20260503212917 | 61 | 225 | 20.0 | 26.1 | 0.00 | 0.00 | 0.00 | 30 | 991.6 |
| 20260503212417 | 61 | 225 | 15.6 | 20.0 | 0.00 | 0.00 | 0.00 | 30 | 991.8 |
| 20260503211938 | 61 | 225 | 14.8 | 19.1 | 0.00 | 0.00 | 0.00 | 29 | 991.7 |
| 20260503211417 | 61 | 225 | 20.9 | 27.8 | 0.00 | 0.00 | 0.00 | 31 | 991.6 |
| 20260503210918 | 61 | 225 | 21.7 | 28.7 | 0.00 | 0.00 | 0.00 | 29 | 991.8 |
| 20260503210458 | 61 | 225 | 13.9 | 15.6 | 0.00 | 0.00 | 0.00 | 32 | 991.9 |
| 20260503205918 | 61 | 225 | 13.9 | 16.5 | 0.00 | 0.00 | 0.00 | 29 | 991.9 |
| 20260503205437 | 61 | 225 | 11.3 | 15.6 | 0.00 | 0.00 | 0.00 | 30 | 992.0 |
| 20260503204917 | 61 | 225 | 10.4 | 13.0 | 0.00 | 0.00 | 0.00 | 28 | 991.9 |
| 20260503204439 | 61 | 225 | 20.9 | 24.3 | 0.00 | 0.00 | 0.00 | 31 | 991.9 |
| 20260503203917 | 61 | 248 | 11.3 | 15.6 | 0.00 | 0.00 | 0.00 | 30 | 992.1 |
| 20260503203438 | 61 | 225 | 12.2 | 14.8 | 0.00 | 0.00 | 0.00 | 30 | 992.0 |
| 20260503202917 | 61 | 225 | 12.2 | 15.6 | 0.00 | 0.00 | 0.00 | 30 | 992.0 |
| 20260503202457 | 61 | 225 | 8.7 | 11.3 | 0.00 | 0.00 | 0.00 | 29 | 992.2 |
| 20260503201917 | 61 | 225 | 20.0 | 22.6 | 0.00 | 0.00 | 0.00 | 29 | 991.9 |
| 20260503201417 | 62 | 225 | 18.2 | 24.3 | 0.00 | 0.00 | 0.00 | 30 | 992.0 |
| 20260503200917 | 62 | 225 | 18.2 | 23.5 | 0.00 | 0.00 | 0.00 | 30 | 992.1 |
| 20260503200417 | 62 | 225 | 15.6 | 21.7 | 0.00 | 0.00 | 0.00 | 31 | 992.2 |
| 20260503195917 | 61 | 225 | 21.7 | 26.9 | 0.00 | 0.00 | 0.00 | 31 | 992.2 |
| 20260503195417 | 61 | 225 | 19.1 | 23.5 | 0.00 | 0.00 | 0.00 | 30 | 992.2 |
| 20260503194917 | 61 | 225 | 11.3 | 13.9 | 0.00 | 0.00 | 0.00 | 28 | 992.4 |
| 20260503194419 | 61 | 225 | 18.2 | 25.2 | 0.00 | 0.00 | 0.00 | 32 | 992.5 |
| 20260503193917 | 61 | 225 | 16.5 | 18.2 | 0.00 | 0.00 | 0.00 | 30 | 992.5 |
| 20260503193417 | 61 | 248 | 14.8 | 17.4 | 0.00 | 0.00 | 0.00 | 30 | 992.5 |
| 20260503192919 | 61 | 225 | 12.2 | 14.8 | 0.00 | 0.00 | 0.00 | 31 | 992.7 |
| 20260503192419 | 61 | 225 | 13.0 | 16.5 | 0.00 | 0.00 | 0.00 | 28 | 992.8 |
| 20260503191917 | 62 | 225 | 19.1 | 25.2 | 0.00 | 0.00 | 0.00 | 32 | 992.9 |
| 20260503191417 | 61 | 225 | 16.5 | 20.9 | 0.00 | 0.00 | 0.00 | 32 | 992.8 |
| 20260503190940 | 61 | 225 | 18.2 | 24.3 | 0.00 | 0.00 | 0.00 | 32 | 992.9 |
| 20260503190419 | 61 | 225 | 19.1 | 21.7 | 0.00 | 0.00 | 0.00 | 31 | 992.9 |
| 20260503185918 | 61 | 225 | 17.4 | 21.7 | 0.00 | 0.00 | 0.00 | 31 | 993.0 |
| 20260503185419 | 61 | 225 | 16.5 | 21.7 | 0.00 | 0.00 | 0.00 | 31 | 993.2 |
| 20260503184917 | 61 | 225 | 17.4 | 20.9 | 0.00 | 0.00 | 0.00 | 31 | 993.2 |
| 20260503184420 | 61 | 225 | 13.9 | 18.2 | 0.00 | 0.00 | 0.00 | 30 | 993.3 |
| 20260503183917 | 61 | 225 | 19.1 | 22.6 | 0.00 | 0.00 | 0.00 | 33 | 993.4 |
| 20260503183419 | 61 | 225 | 19.1 | 22.6 | 0.00 | 0.00 | 0.00 | 33 | 993.3 |
| 20260503182917 | 61 | 225 | 17.4 | 20.9 | 0.00 | 0.00 | 0.00 | 31 | 993.4 |
| 20260503182418 | 60 | 225 | 21.7 | 26.1 | 0.00 | 0.00 | 0.00 | 31 | 993.4 |
| 20260503181919 | 61 | 225 | 10.4 | 13.0 | 0.00 | 0.00 | 0.00 | 30 | 993.7 |
| 20260503181417 | 60 | 225 | 8.7 | 10.4 | 0.00 | 0.00 | 0.00 | 28 | 993.7 |
| 20260503180938 | 60 | 225 | 12.2 | 13.9 | 0.00 | 0.00 | 0.00 | 28 | 993.8 |
| 20260503180417 | 60 | 248 | 13.0 | 16.5 | 0.00 | 0.00 | 0.00 | 31 | 993.9 |
| 20260503175940 | 60 | 225 | 15.6 | 20.0 | 0.00 | 0.00 | 0.00 | 32 | 994.1 |
| 20260503175439 | 60 | 248 | 14.8 | 17.4 | 0.00 | 0.00 | 0.00 | 31 | 994.0 |
| 20260503174918 | 60 | 225 | 15.6 | 18.2 | 0.00 | 0.00 | 0.00 | 33 | 994.1 |
| 20260503174417 | 60 | 225 | 16.5 | 19.1 | 0.00 | 0.00 | 0.00 | 34 | 994.1 |
| 20260503173917 | 60 | 248 | 9.6 | 12.2 | 0.00 | 0.00 | 0.00 | 31 | 994.2 |
| 20260503173417 | 60 | 225 | 14.8 | 26.1 | 0.00 | 0.00 | 0.00 | 32 | 994.2 |
| 20260503172917 | 59 | 225 | 13.9 | 15.6 | 0.00 | 0.00 | 0.00 | 36 | 994.3 |
| 20260503172417 | 59 | 248 | 7.0 | 7.8 | 0.00 | 0.00 | 0.00 | 34 | 994.4 |
| 20260503171917 | 59 | 248 | 9.6 | 14.8 | 0.00 | 0.00 | 0.00 | 35 | 994.5 |
| 20260503171417 | 59 | 248 | 7.8 | 10.4 | 0.00 | 0.00 | 0.00 | 36 | 994.6 |
| 20260503170917 | 58 | 225 | 8.7 | 12.2 | 0.00 | 0.00 | 0.00 | 34 | 994.6 |
| 20260503170417 | 59 | 225 | 8.7 | 10.4 | 0.00 | 0.00 | 0.00 | 34 | 994.7 |
| 20260503150937 | 54 | 248 | 14.8 | 16.5 | 0.00 | 0.00 | 0.00 | 42 | 995.7 |
| 20260503150417 | 53 | 248 | 8.7 | 12.2 | 0.00 | 0.00 | 0.00 | 40 | 995.8 |
| 20260503130920 | 48 | 225 | 12.2 | 15.6 | 0.00 | 0.00 | 0.00 | 45 | 996.2 |
| 20260503130417 | 48 | 225 | 12.2 | 16.5 | 0.00 | 0.00 | 0.00 | 45 | 996.2 |
| 20260503110419 | 39 | 203 | 5.2 | 7.0 | 0.00 | 0.00 | 0.00 | 56 | 996.3 |